LiveATC.Net - Listen to live air traffic control over the Internet!


ICAO: ENSO  IATA: SRP   Airport: Stord Lufthavn Airport
City: Stord
Country: Norway   Continent: Europe
ENSO METAR Weather: ENSO 020750Z 17017G29KT 140V200 9999 -RA FEW005 SCT009 BKN014 07/06 Q1013
ENSO Flight Activity (FlightAware)
ENSO Webcam: (Airport Webcams)
ENSO AFIS
Feed Status: UP   Listeners: 0
Listen right in your browser - requires Flash (in browser, requires Flash)
Click here to listen with your own player (launches your MP3 player)
ENSO AFIS Audio Archives
FacilityFrequency
Stord AFIS120.200

Feed sponsored by:

NOTICE

Unauthorized use prohibited. See LiveATC.net Terms of Service


Find LiveATC Audio Streams


Airport/ARTCC Code

Frequency
(e.g., 124.400, 128.75)
Site-wide search

Browse LiveATC Feeds
LiveATC Coverage Map
Top 50 LiveATC Feeds
Bad Weather Areas

LiveATC FAQ
Offer a LiveATC Feed
Contact LiveATC.net
Press Inquiries

LiveATC on iPhone
LiveATC on Android

Windows Phone
Windows 8/10

LiveATC Mobile
(Mobile browser)

ATC Audio Archives
Interesting Recordings

LiveATC Forums


Home Page
About LiveATC.net
Make a Donation
LiveATC Store

Terms of Use
Privacy Policy

Canadian Air Freqs

AIRMETs/SIGMETs

FAA Airport Status
Nat'l Airspace Status
Arrival Demand Charts


Server Software By:
Icecast.org
Liquidsoap